Regional Weather Roundup
Issued by NWS Little Rock, AR

Home | Current Version | Previous Version | Text Only | Print | Product List | Glossary Off
Versions: 1 2 3 4 5 6 7 8 9 10 11 12 13 14 15 16 17 18 19 20 21 22 23 24 25 26 27 28 29 30 31 32 33 34 35 36 37 38 39 40 41 42 43 44 45 46 47 48 49 50

000
ASUS44 KLZK 211200
RWRLZK
ARKANSAS STATE WEATHER ROUNDUP
NATIONAL WEATHER SERVICE LITTLE ROCK AR
ISSUED BY NATIONAL WEATHER SERVICE MEMPHIS TN
700 AM CDT THU SEP 21 2017

NOTE: "FAIR" INDICATES FEW OR NO CLOUDS BELOW 12,000 FEET WITH NO
SIGNIFICANT WEATHER AND/OR OBSTRUCTIONS TO VISIBILITY.

ARZ001-003-010-029-211300-
NORTHWEST ARKANSAS

CITY           SKY/WX    TMP DP  RH WIND       PRES   REMARKS
FORT SMITH     CLEAR     73  71  93 NE3       29.96R
6HR MIN TEMP:  72; 6HR MAX TEMP:  79;

HARRISON       CLEAR     69  69 100 SE6       30.02R FOG
6HR MIN TEMP:  68; 6HR MAX TEMP:  75;

BENTONVILLE    CLEAR     73  70  90 S10       30.00R
6HR MIN TEMP:  72; 6HR MAX TEMP:  76;

SILOAM SPGS    CLEAR     72  69  90 SE7       29.98R
6HR MIN TEMP:  72; 6HR MAX TEMP:  76;

HIGHFILL       CLEAR     70  70 100 S8        29.98R
6HR MIN TEMP:  70; 6HR MAX TEMP:  76;

SPRINGDALE     CLEAR     73  72  94 SE8       30.00R
$$

ARZ004-005-016-211300-
NORTH CENTRAL ARKANSAS

CITY           SKY/WX    TMP DP  RH WIND       PRES   REMARKS
BATESVILLE     CLEAR    N/A N/A N/A E3        30.02R HAZE
FLIPPIN        CLEAR     69  67  93 CALM      30.01R FOG
6HR MIN TEMP:  69; 6HR MAX TEMP:  78;

MTN HOME       CLEAR     71  71 100 S5        30.01R
6HR MIN TEMP:  71; 6HR MAX TEMP:  75;

$$

ARZ040-041-211300-
WEST CENTRAL ARKANSAS

CITY           SKY/WX    TMP DP  RH WIND       PRES   REMARKS
MOUNT IDA      CLEAR     74  71  91 VRB5      29.99R
6HR MIN TEMP:  71; 6HR MAX TEMP:  79;

$$

ARZ017-025-026-028-211300-
NORTHEAST ARKANSAS

CITY           SKY/WX    TMP DP  RH WIND       PRES   REMARKS
JONESBORO      MOCLDY    69  69 100 NE3       30.03R
6HR MIN TEMP:  68; 6HR MAX TEMP:  73;

NEWPORT        FOG       69  68  96 SE6       30.03R VSB 1/4
6HR MIN TEMP:  69; 6HR MAX TEMP:  73;

BLYTHEVILLE    CLEAR     73  72  96 S6        30.04R
6HR MIN TEMP:  73; 6HR MAX TEMP:  76;

$$

ARZ022-033-042-044-211300-
CENTRAL ARKANSAS

CITY           SKY/WX    TMP DP  RH WIND       PRES   REMARKS
LITTLE ROCK    CLEAR     72  72 100 CALM      30.02R FOG
6HR MIN TEMP:  72; 6HR MAX TEMP:  78;

JACKSONVILLE   CLEAR     72  72 100 CALM      30.01R
6HR MIN TEMP:  71; 6HR MAX TEMP:  78;

SEARCY         FOG       70  70 100 CALM      30.04R VSB 1/2
6HR MIN TEMP:  70; 6HR MAX TEMP:  73;

HOT SPRINGS    PTCLDY    71  70  96 E6        30.01R
6HR MIN TEMP:  71; 6HR MAX TEMP:  80;

RUSSELLVILLE   CLEAR     73  71  93 SE3       29.98R
6HR MIN TEMP:  71; 6HR MAX TEMP:  74;

$$

ARZ036-211300-
EAST ARKANSAS

CITY           SKY/WX    TMP DP  RH WIND       PRES   REMARKS
WEST MEMPHIS   CLEAR     70  70 100 SE3       30.03R
6HR MIN TEMP:  69; 6HR MAX TEMP:  75;

$$

ARZ050-070-073-211300-
SOUTHWEST ARKANSAS

CITY           SKY/WX    TMP DP  RH WIND       PRES   REMARKS
TEXARKANA      CLOUDY    74  74 100 S9        30.00R
6HR MIN TEMP:  73; 6HR MAX TEMP:  75;

EL DORADO      CLOUDY    72  72 100 SE3       30.02R FOG
6HR MIN TEMP:  69; 6HR MAX TEMP:  72;

DEQUEEN        CLOUDY    73  73 100 CALM      29.98R FOG
6HR MIN TEMP:  70; 6HR MAX TEMP:  78;

$$

ARZ056-057-069-211300-
SOUTHEAST ARKANSAS

CITY           SKY/WX    TMP DP  RH WIND       PRES   REMARKS
PINE BLUFF     CLEAR     70  69  97 E3        30.02R FOG
6HR MIN TEMP:  70; 6HR MAX TEMP:  76;

STUTTGART      CLEAR     73  71  93 S6        30.03R
6HR MIN TEMP:  72; 6HR MAX TEMP:  76;

MONTICELLO     CLEAR     72  70  93 CALM      30.02R
6HR MIN TEMP:  71; 6HR MAX TEMP:  76;

$$




USA.gov is the U.S. government's official web portal to all federal, state and local government web resources and services.